Location: Kellogg
(38.0159°N, 90.0546°W)
Time: 12:03:11
(UTC+00:00)

Courier 1B - Pass Details

Date: 07 September 2024
Orbit: 962 x 1208 km, 28.3° (Epoch: 11 October)

Event Time Altitude Azimuth Distance (km) Brightness Sun altitude
Rises 02:26:43 0° 261° (W) 4,104 11.5 -24.2°
Reaches altitude 10° 02:29:49 10° 253° (WSW) 3,129 10.7 -24.7°
Maximum altitude 02:36:49 37° 190° (S) 1,736 8.6 -25.9°
Enters shadow 02:37:43 36° 175° (S) 1,762 8.5 -26.0°
Drops below altitude 10° 02:43:33 10° 126° (SE) 3,009 - -27.0°
Sets 02:46:29 0° 118° (ESE) 3,931 - -27.5°
